Probability
94 94 100 100 100 100 100 100 100 100 100 100 100 100 100 100 100 100 100 100 100 100 97 97 100 100 100 100 100 100 100 100 100 100 100 100 100 100 100 100 100 100 100
97 100 100 100 100 100 100 100 100 100 100 100 100 100 100 100 100 100 97 84 84 94 100 97 100 100 100 100 100 100 100 100 100 100 100 100 100 100 100 100 100 100 100
100 100 100 100 100 100 100 100 100 100 100 100 100 100 100 100 100 100 97 74 42 84 100 100 100 100 100 100 100 100 100 100 100 100 100 100 100 100 100 100 100 100 100
100 100 100 100 100 100 100 100 100 100 97 100 100 94 94 100 100 100 100 100 81 94 100 100 100 100 100 100 100 100 100 100 100 100 100 100 100 100 100 100 100 100 100
100 97 100 100 100 100 100 100 100 100 100 100 97 65 84 97 100 100 97 65 29 97 100 100 100 100 100 100 100 100 100 100 100 100 100 100 100 100 100 100 97 97 100
100 100 100 100 100 100 100 100 100 100 100 100 81 65 90 100 100 100 97 68 42 84 100 100 100 100 100 100 100 100 100 100 100 100 100 100 100 100 100 100 97 90 94
97 100 100 100 100 100 100 100 100 100 100 100 84 97 100 100 100 100 100 74 19 58 94 100 100 100 100 100 94 87 100 100 100 100 100 100 100 100 100 100 100 94 97
100 100 97 100 100 100 100 100 100 100 100 100 100 100 100 97 94 97 100 23 0 23 77 94 100 100 100 97 77 29 29 94 58 74 100 100 100 100 100 100 100 100 97
94 100 97 87 100 100 100 100 100 100 100 100 100 100 100 100 97 100 48 0 0 52 94 100 100 100 84 26 3 0 0 71 45 10 87 94 100 100 100 100 100 100 100
94 97 97 84 52 35 100 100 100 100 100 100 100 100 100 100 94 52 3 0 3 26 71 87 81 26 3 0 0 0 0 19 6 68 97 97 100 77 100 100 100 100 97
100 68 48 81 58 23 29 90 100 100 100 100 100 100 100 61 6 6 0 0 0 6 71 35 16 3 0 0 0 6 32 19 23 77 81 100 100 58 55 77 74 84 84
10 32 19 29 52 39 61 77 100 81 77 45 16 52 94 19 0 0 0 16 26 74 68 13 6 6 3 0 0 26 10 10 29 65 94 100 100 94 71 68 52 71 74
0 3 16 13 16 29 71 61 94 100 87 55 10 6 19 0 0 0 0 35 19 23 0 0 6 0 0 0 0 10 3 19 81 100 100 100 100 100 100 100 90 81 68
0 0 0 10 3 10 23 16 32 48 48 52 48 6 3 0 0 0 0 0 0 0 0 0 0 0 0 0 0 0 13 42 87 100 100 100 100 100 100 100 100 94 94
10 13 3 3 6 0 61 81 29 29 6 6 71 19 0 0 0 0 0 0 0 0 0 0 0 0 0 0 0 0 16 61 84 90 97 100 100 100 100 100 100 100 100
13 29 39 13 13 13 61 16 16 19 87 6 16 3 0 0 0 0 0 3 0 0 0 0 0 0 0 0 0 0 0 13 32 55 77 94 100 100 100 100 100 100 100
13 26 65 52 32 35 58 23 6 16 3 6 10 0 0 0 0 0 0 0 0 0 0 0 0 0 0 0 0 0 0 0 0 0 3 26 29 84 100 100 100 100 94
10 23 87 71 55 48 74 90 48 58 13 6 3 0 0 0 0 0 0 0 0 0 0 0 0 0 0 0 0 0 0 0 0 0 0 0 3 0 32 84 97 97 97
10 19 100 90 81 97 100 100 97 58 55 23 10 6 6 0 0 0 0 0 0 0 0 0 0 0 0 0 0 0 0 0 0 0 0 0 0 0 0 3 19 23 29
10 19 97 100 100 100 100 100 97 90 58 52 39 58 6 3 0 0 0 0 0 0 0 0 0 3 0 0 0 0 0 0 0 0 0 0 0 0 0 0 0 0 0
32 35 100 100 100 100 100 100 100 97 90 81 94 84 71 55 10 0 0 0 0 0 3 0 3 0 0 0 0 0 0 0 0 0 0 0 0 0 0 0 0 0 0
68 71 90 100 100 100 100 100 100 97 74 84 90 94 77 61 29 6 0 0 0 3 10 6 0 0 0 0 0 0 0 0 0 0 0 0 0 0 0 0 0 0 0
100 94 87 100 100 100 100 100 100 100 87 84 100 100 90 90 58 48 6 0 0 3 3 0 0 0 0 0 0 0 0 0 0 0 0 0 0 0 0 0 0 0 0
94 90 94 100 97 97 100 100 100 100 90 77 94 97 100 100 94 87 55 16 0 0 3 0 0 0 0 0 0 0 0 0 0 0 0 0 0 0 0 0 0 0 0
81 90 90 100 100 100 100 100 100 100 97 90 97 94 100 100 90 84 55 19 0 0 0 3 3 3 0 0 0 0 0 0 0 0 0 0 0 0 0 0 0 0 0
97 97 97 100 100 100 100 100 100 100 100 94 94 100 100 100 100 94 68 42 13 0 0 0 6 6 0 0 0 0 0 0 0 0 0 0 0 0 0 0 0 0 0
Height
5890 5889 5888 5887 5886 5884 5882 5880 5879 5877 5877 5876 5875 5875 5874 5873 5872 5872 5871 5871 5871 5871 5870 5870 5871 5872 5875 5877 5878 5880 5882 5884 5885 5885 5886 5885 5885 5886 5888 5890 5892 5894 5895
5890 5890 5889 5887 5886 5884 5883 5881 5879 5878 5877 5876 5876 5875 5874 5873 5872 5872 5871 5871 5870 5870 5868 5867 5867 5869 5871 5875 5877 5879 5881 5883 5885 5885 5885 5885 5885 5886 5888 5890 5891 5893 5894
5890 5890 5889 5888 5886 5884 5883 5881 5880 5878 5877 5877 5876 5875 5874 5873 5872 5871 5871 5870 5870 5869 5868 5865 5865 5866 5868 5873 5876 5878 5880 5882 5884 5885 5885 5886 5886 5887 5888 5889 5891 5891 5892
5890 5890 5889 5888 5886 5884 5883 5881 5880 5879 5877 5877 5876 5874 5874 5872 5872 5871 5871 5870 5869 5869 5868 5866 5865 5865 5868 5872 5875 5878 5880 5881 5882 5883 5884 5885 5886 5887 5888 5889 5889 5890 5891
5890 5890 5889 5887 5886 5884 5883 5881 5880 5879 5877 5877 5876 5874 5873 5872 5871 5870 5870 5870 5869 5869 5868 5867 5866 5867 5869 5872 5875 5877 5879 5880 5881 5882 5883 5885 5886 5887 5888 5889 5889 5890 5891
5889 5889 5888 5887 5885 5884 5882 5881 5880 5879 5878 5877 5875 5873 5872 5871 5871 5870 5870 5870 5869 5869 5869 5868 5868 5868 5870 5872 5874 5876 5877 5878 5879 5880 5882 5884 5885 5886 5887 5888 5889 5890 5891
5887 5887 5886 5885 5884 5883 5881 5880 5879 5878 5877 5877 5875 5873 5871 5870 5870 5870 5870 5869 5869 5869 5869 5869 5869 5869 5870 5871 5873 5874 5875 5876 5877 5878 5880 5882 5883 5885 5886 5887 5888 5889 5890
5886 5886 5885 5884 5883 5882 5881 5880 5879 5878 5877 5876 5875 5873 5871 5870 5870 5869 5869 5869 5868 5868 5869 5870 5870 5870 5871 5871 5873 5874 5875 5876 5877 5878 5880 5882 5883 5884 5886 5886 5887 5888 5889
5885 5885 5884 5884 5883 5882 5881 5880 5878 5877 5877 5876 5875 5873 5871 5870 5869 5869 5868 5868 5868 5868 5868 5869 5870 5870 5871 5872 5873 5874 5875 5876 5876 5878 5880 5881 5882 5883 5885 5886 5887 5887 5888
5883 5884 5884 5884 5883 5882 5880 5879 5877 5876 5875 5875 5874 5872 5870 5869 5868 5868 5867 5866 5867 5867 5867 5868 5869 5869 5870 5871 5873 5874 5875 5875 5876 5878 5878 5880 5882 5883 5884 5885 5886 5887 5887
5882 5882 5883 5883 5882 5881 5879 5878 5876 5875 5874 5874 5873 5871 5869 5868 5866 5867 5866 5865 5865 5865 5865 5866 5867 5868 5869 5870 5871 5872 5873 5874 5875 5876 5877 5879 5880 5881 5882 5883 5884 5885 5886
5881 5881 5881 5881 5880 5879 5878 5876 5875 5874 5874 5873 5872 5870 5868 5866 5865 5864 5864 5864 5863 5863 5863 5864 5864 5865 5866 5867 5868 5870 5871 5872 5873 5874 5876 5877 5878 5879 5881 5881 5882 5883 5884
5878 5879 5880 5879 5878 5877 5876 5875 5873 5872 5871 5871 5870 5869 5867 5865 5863 5862 5862 5861 5861 5861 5861 5861 5861 5862 5863 5865 5866 5867 5869 5870 5871 5872 5873 5875 5877 5878 5879 5880 5880 5881 5882
5877 5877 5877 5877 5876 5874 5873 5873 5871 5870 5869 5869 5868 5867 5865 5864 5862 5861 5861 5859 5858 5858 5858 5859 5859 5860 5861 5862 5863 5864 5865 5867 5868 5870 5871 5872 5874 5875 5877 5878 5878 5879 5880
5875 5875 5874 5874 5873 5872 5871 5870 5869 5868 5868 5867 5866 5864 5862 5861 5860 5859 5859 5857 5855 5855 5856 5856 5857 5857 5858 5859 5860 5861 5862 5863 5864 5866 5868 5869 5871 5872 5874 5875 5875 5876 5878
5873 5873 5872 5871 5870 5869 5868 5867 5867 5866 5865 5865 5864 5862 5860 5858 5857 5856 5856 5855 5853 5852 5853 5854 5855 5855 5855 5856 5857 5858 5859 5860 5861 5862 5864 5866 5868 5869 5871 5872 5873 5874 5876
5870 5870 5869 5868 5867 5866 5865 5864 5863 5862 5862 5861 5860 5859 5857 5855 5854 5853 5853 5853 5851 5850 5850 5851 5852 5853 5853 5853 5853 5855 5855 5856 5857 5858 5860 5862 5864 5866 5868 5869 5870 5872 5874
5866 5866 5866 5864 5863 5862 5861 5860 5860 5859 5858 5858 5857 5856 5855 5853 5851 5851 5850 5849 5849 5848 5848 5848 5849 5850 5850 5851 5851 5852 5852 5853 5854 5855 5857 5859 5861 5863 5864 5866 5867 5870 5872
5862 5862 5862 5860 5859 5858 5856 5855 5855 5855 5855 5853 5853 5853 5851 5850 5849 5848 5847 5845 5845 5845 5845 5845 5845 5846 5847 5848 5848 5849 5850 5850 5851 5852 5854 5855 5858 5860 5861 5863 5865 5867 5870
5858 5858 5858 5857 5855 5854 5853 5852 5851 5851 5851 5850 5849 5849 5848 5847 5846 5845 5844 5842 5841 5841 5842 5842 5842 5843 5843 5844 5845 5846 5847 5848 5849 5850 5851 5853 5855 5857 5859 5861 5863 5866 5868
5855 5854 5854 5853 5852 5851 5850 5849 5848 5847 5847 5847 5845 5844 5843 5843 5842 5842 5840 5838 5837 5837 5837 5837 5838 5839 5840 5840 5841 5842 5844 5845 5846 5847 5849 5850 5852 5854 5856 5859 5862 5864 5867
5850 5849 5849 5848 5847 5846 5845 5844 5844 5842 5842 5841 5839 5838 5838 5837 5837 5836 5835 5833 5833 5833 5832 5833 5833 5834 5836 5837 5838 5839 5841 5843 5843 5845 5846 5847 5849 5850 5852 5856 5859 5862 5864
5845 5844 5843 5843 5842 5841 5840 5839 5838 5837 5836 5835 5834 5832 5831 5830 5830 5829 5828 5827 5827 5828 5828 5828 5828 5829 5831 5833 5835 5836 5838 5840 5841 5842 5843 5845 5846 5847 5849 5852 5855 5859 5861
5839 5839 5839 5838 5837 5837 5836 5835 5834 5832 5831 5829 5828 5826 5824 5823 5822 5821 5821 5820 5820 5821 5822 5823 5823 5825 5826 5828 5830 5832 5835 5837 5839 5840 5842 5843 5844 5845 5847 5849 5851 5855 5858
5833 5834 5834 5834 5833 5833 5831 5830 5828 5826 5825 5823 5821 5819 5817 5815 5814 5813 5813 5812 5812 5813 5815 5816 5817 5819 5821 5823 5824 5827 5831 5833 5835 5837 5839 5841 5843 5844 5845 5847 5849 5852 5854
5828 5829 5829 5829 5828 5828 5826 5825 5823 5821 5818 5816 5813 5812 5810 5808 5806 5806 5805 5805 5804 5806 5807 5809 5811 5813 5816 5818 5820 5822 5825 5829 5831 5834 5836 5838 5840 5842 5843 5845 5847 5849 5851
Wind_Speed
4 6 9 11 12 12 12 12 11 11 11 9 9 9 9 9 7 4 3 4 4 5 6 10 16 21 22 20 17 15 13 11 7 4 3 2 2 6 12 14 13 13 13
3 5 9 11 12 12 12 11 10 11 12 11 10 10 10 9 8 6 4 4 5 6 6 7 15 23 26 25 20 17 15 13 9 7 5 4 3 5 8 11 13 14 14
2 4 7 9 11 11 11 9 9 11 13 13 11 11 10 9 8 7 5 5 4 5 6 4 8 19 26 27 22 18 15 14 10 8 7 5 4 6 7 8 11 13 14
0 3 6 8 10 11 10 8 7 10 12 13 13 12 10 8 7 6 6 6 4 4 6 5 1 12 24 25 22 18 16 15 12 10 8 6 6 8 7 6 6 8 9
3 3 6 8 10 11 10 7 7 9 11 13 14 13 11 8 7 7 7 7 5 4 4 5 1 10 21 23 21 18 17 17 17 12 10 8 7 8 6 4 5 6 6
6 4 5 7 10 11 9 7 6 8 11 12 13 13 11 9 8 7 7 7 6 4 3 4 2 9 19 21 20 18 18 19 18 14 11 8 6 6 4 3 4 5 5
8 5 4 6 9 10 8 8 7 8 10 11 13 14 12 11 9 8 8 6 6 6 3 1 2 5 13 17 16 14 12 14 14 10 9 8 6 5 4 4 4 4 3
8 6 5 6 9 10 9 8 8 9 11 12 14 16 15 13 11 10 9 7 5 6 5 4 2 3 7 11 13 11 10 11 11 10 8 8 6 4 3 5 5 5 4
9 8 7 7 8 10 10 9 9 10 12 14 16 18 17 15 12 11 10 9 7 6 7 7 6 6 7 10 11 11 11 12 12 10 7 6 4 4 5 5 6 6 6
11 9 7 7 8 9 10 10 10 11 13 15 17 19 18 16 13 12 11 10 9 8 8 9 10 10 10 11 12 13 13 13 12 12 11 8 7 6 7 8 7 8 7
12 10 8 8 8 9 10 10 10 11 13 16 17 19 19 16 16 14 13 12 11 10 9 10 13 14 14 14 14 15 15 15 15 16 14 12 10 9 9 9 8 8 9
11 10 10 10 10 10 11 11 11 11 13 16 17 20 20 20 20 17 14 14 12 11 9 9 12 16 17 18 18 18 19 18 19 18 17 15 13 11 11 10 9 9 10
10 10 10 11 12 12 13 13 13 13 13 15 17 20 23 23 22 18 14 15 15 12 10 9 11 15 18 19 20 20 21 21 22 22 20 19 16 14 12 11 10 10 12
11 12 13 12 12 13 14 15 16 16 16 17 19 20 24 23 21 17 16 18 18 15 12 10 11 14 16 18 19 20 21 22 24 24 23 21 19 16 14 12 12 12 14
13 14 14 15 13 13 14 15 17 17 18 19 21 22 24 24 20 18 18 19 18 16 14 13 12 14 14 17 18 19 20 20 21 21 22 21 19 17 15 14 13 12 14
13 15 16 17 15 14 15 16 17 18 19 19 22 23 24 24 20 18 19 21 18 15 14 14 13 14 15 17 20 20 19 20 20 20 21 20 19 18 17 14 13 13 15
13 14 14 15 15 15 15 16 18 19 20 20 22 23 23 23 21 19 20 21 20 15 13 14 15 15 16 17 18 20 18 18 18 18 19 20 20 17 15 13 13 14 16
13 13 13 13 13 15 16 16 17 19 19 20 22 24 23 23 23 21 21 21 20 16 13 15 16 17 16 16 17 18 17 15 16 16 17 19 20 17 14 13 14 15 16
16 15 14 14 14 15 17 18 18 19 20 21 22 23 24 22 23 22 22 22 19 16 15 16 17 17 16 15 16 16 15 15 15 15 15 17 18 17 15 14 15 14 14
18 18 18 16 16 17 19 20 21 22 21 22 23 24 24 23 22 22 23 23 21 18 17 17 18 18 16 15 15 15 14 14 14 14 14 14 16 17 16 16 16 15 14
19 19 18 17 18 19 20 21 22 24 24 24 26 26 25 25 23 22 23 25 24 22 19 18 18 19 16 15 14 15 14 13 13 14 14 14 15 15 17 17 16 15 14
19 19 19 19 20 21 21 22 23 24 25 25 26 27 27 27 27 26 25 26 26 23 20 17 18 19 17 16 15 15 13 12 12 12 14 14 15 15 16 17 17 16 15
19 19 19 20 22 22 23 25 25 24 25 26 27 29 30 30 31 29 27 27 27 24 21 19 18 19 19 18 17 16 15 13 12 12 13 13 14 14 15 17 18 18 16
20 20 20 20 22 23 24 25 25 24 26 29 30 31 33 34 34 32 28 27 27 26 23 23 21 19 19 21 20 18 17 16 14 12 11 11 11 12 14 16 18 19 19
22 21 20 20 21 23 24 25 26 28 31 32 32 32 33 34 33 32 29 27 26 24 24 24 23 21 20 22 23 20 19 18 18 15 12 10 9 9 10 13 16 19 20
22 20 20 21 22 23 25 26 28 30 32 33 32 31 31 31 30 29 27 26 25 23 22 21 22 21 21 21 23 23 21 21 22 19 16 12 10 9 8 9 11 15 18
Wind_Direction
49 45 27 16 13 12 11 14 18 17 14 13 11 3 358 351 337 313 293 287 287 290 271 235 220 214 208 203 198 194 195 197 198 202 209 195 172 206 207 201 203 213 215
33 30 21 17 15 15 14 14 15 15 13 9 4 358 353 350 347 327 311 300 300 307 302 254 226 218 211 203 200 197 198 201 207 202 194 182 150 165 190 201 210 220 221
25 22 16 12 12 13 12 13 14 13 10 7 360 353 348 347 351 345 336 326 320 332 344 322 227 215 209 198 196 197 200 204 206 196 188 184 176 171 179 194 213 222 220
313 6 6 7 7 6 6 12 14 9 5 3 357 352 347 342 344 344 341 339 340 354 2 6 301 198 193 190 193 195 203 208 202 194 193 197 198 181 172 180 195 200 204
235 314 344 360 5 1 2 10 12 5 0 359 357 350 342 336 333 328 330 329 330 351 10 16 58 182 182 188 195 204 215 221 221 208 206 210 199 175 169 179 173 172 178
234 280 327 351 2 1 2 7 9 3 357 354 353 346 336 327 320 315 324 324 316 316 344 19 64 186 192 198 204 215 225 228 222 203 196 192 185 172 174 196 196 184 190
233 270 309 339 354 0 3 3 357 353 354 353 350 344 331 321 312 306 307 316 304 291 283 340 61 172 192 199 203 208 213 215 212 196 189 189 186 182 205 232 236 218 219
235 264 291 322 345 358 357 352 346 343 345 347 346 342 334 328 320 308 299 298 298 282 267 245 216 172 176 187 192 192 194 199 204 208 221 232 215 202 227 249 260 255 257
244 257 274 307 333 352 348 342 341 339 340 344 343 337 335 335 330 322 306 294 293 281 266 244 223 210 191 185 187 193 201 204 206 214 231 260 279 266 260 271 272 269 266
246 253 272 301 322 347 349 339 339 338 337 338 340 336 329 330 335 331 318 303 293 279 263 248 229 220 214 207 206 210 215 216 217 221 231 244 259 258 256 262 268 260 250
240 250 263 284 305 331 339 340 337 335 335 332 330 330 323 320 325 329 322 314 302 280 265 252 238 230 226 223 222 222 224 225 226 229 234 242 251 256 261 263 263 253 236
236 246 263 276 288 309 325 338 336 328 328 326 325 329 326 322 321 325 320 319 313 291 272 256 239 235 233 232 231 232 232 232 234 235 239 245 250 253 258 261 256 245 227
245 245 253 272 283 292 307 326 334 329 323 324 326 335 333 326 322 322 319 316 313 300 279 261 241 235 236 236 235 236 237 238 240 244 248 251 252 250 253 257 250 239 224
248 253 257 266 283 290 300 317 326 327 328 332 335 334 333 329 322 319 320 315 306 296 280 261 245 239 240 240 237 235 238 242 245 248 250 250 250 246 251 254 248 239 224
250 259 267 273 282 286 293 308 318 320 324 328 333 330 329 330 327 320 323 325 309 292 276 259 248 242 241 242 239 237 240 243 246 247 246 245 244 245 252 254 246 237 222
255 261 268 276 283 288 292 298 306 312 318 323 334 330 326 328 327 317 317 328 321 298 277 260 251 242 239 242 242 241 245 248 248 246 243 242 240 244 250 248 239 229 218
269 270 275 278 286 293 299 301 303 307 313 315 328 332 327 326 326 317 311 318 322 307 282 262 253 249 245 244 243 242 249 252 249 244 242 240 237 240 245 239 233 223 214
281 284 287 285 288 293 297 301 303 305 309 312 316 323 324 322 322 316 314 315 316 306 284 264 256 255 252 251 248 246 252 253 251 245 241 237 234 236 239 230 221 218 215
286 290 296 296 295 295 297 300 302 304 307 309 310 312 316 317 315 312 311 315 313 300 282 268 258 256 256 254 248 245 250 253 254 248 239 236 235 238 237 224 215 214 216
281 284 291 297 298 298 301 303 303 303 303 302 301 303 306 307 306 305 306 311 311 301 281 266 256 254 253 251 245 244 251 255 259 250 241 244 240 240 237 225 216 216 219
276 279 288 294 298 299 300 302 302 301 301 298 298 301 302 302 301 299 298 301 302 300 282 261 249 249 248 245 244 246 251 255 261 249 241 246 244 241 234 226 220 220 226
275 280 290 297 299 301 302 303 304 304 302 298 298 301 300 299 298 296 294 293 293 293 280 255 241 241 241 241 244 245 245 247 256 248 242 246 246 240 228 223 222 221 227
276 283 290 296 300 303 304 305 306 306 304 302 300 298 297 295 294 294 292 289 287 285 273 254 237 235 235 237 238 238 236 241 247 246 243 245 245 240 228 220 219 219 225
276 281 289 296 299 301 304 305 305 306 305 304 301 298 296 294 293 291 289 286 283 276 265 256 243 236 235 233 234 235 232 233 236 239 240 243 243 240 233 224 219 220 223
272 278 285 291 296 301 305 306 306 305 304 303 301 298 295 292 289 287 284 281 278 268 258 254 245 239 238 236 234 235 231 229 229 233 237 239 240 239 237 233 228 225 225
268 275 285 293 300 305 306 307 307 304 302 301 300 298 295 292 289 283 277 274 271 263 256 252 242 243 244 240 236 236 233 232 228 229 234 234 232 232 232 234 234 231 230